Weather History for KTVL - October, 2012

Change the Weather History Date:

Tuesday, October 2, 2012

  Actual Average Record
Temperature  
Mean Temperature 58 °F 50 °F  
Max Temperature 80 °F 68 °F 84 °F (1988)
Min Temperature 35 °F 31 °F 24 °F (1977)
Degree Days  
Heating Degree Days 7 16  
Month to date heating degree days 15 31  
Since 1 July heating degree days 434 657  
Cooling Degree Days 0 0  
Month to date cooling degree days 0 0  
Year to date cooling degree days 30 31  
Growing Degree Days 7 (Base 50)    
Moisture  
Dew Point 28 °F    
Average Humidity 41    
Maximum Humidity 70    
Minimum Humidity 12    
Precipitation  
Precipitation 0.00 in - 1.05 in (1976)
Month to date precipitation 0.00  
Year to date precipitation 11.06  
Sea Level Pressure  
Sea Level Pressure 30.11 in    
Wind  
Wind Speed 2 mph (South)    
Max Wind Speed 17 mph    
Max Gust Speed 25 mph    
Visibility 10 miles    
Events      
T = Trace of Precipitation, MM = Missing Value Source: NWS Daily Summary

Daily Weather History Graph

Daily Weather History Graph

Search for Another Location

Airport or City:

Trip Planner

Search our weather history database for the weather conditions in past years. The results will help you decide how hot, cold, wet, or windy it might be!

Date:

Astronomy

Oct. 02, 2012 Rise Set
Actual Time 6:57 AM PDT 6:40 PM PDT
Civil Twilight 6:30 AM PDT 7:06 PM PDT
Nautical Twilight 5:59 AM PDT 7:37 PM PDT
Astronomical Twilight 5:28 AM PDT 8:08 PM PDT
Moon 7:58 PM PDT 9:27 AM PDT
Length of Visible Light 12h 35m
Length of Day
11h 42m
Waning Gibbous, 93% of the Moon is Illuminated
Oct 2
Waning Gibbous
Oct 8
Last Quarter
Oct 15
New
Oct 21
First Quarter
Oct 29
Full

Hourly Weather History & Observations

Time (PDT) Temp. Windchill Dew Point Humidity Pressure Visibility Wind Dir Wind Speed Gust Speed Precip Events Conditions
12:53 AM 44.1 °F - 28.0 °F 53% 30.16 in 10.0 mi Calm Calm - N/A   Clear
1:53 AM 43.0 °F - 28.0 °F 56% 30.16 in 10.0 mi Calm Calm - N/A   Clear
2:53 AM 41.0 °F - 28.0 °F 60% 30.15 in 10.0 mi Calm Calm - N/A   Clear
3:53 AM 37.9 °F 35.5 °F 27.0 °F 65% 30.14 in 10.0 mi South 3.5 mph - N/A   Clear
4:53 AM 37.9 °F - 27.0 °F 65% 30.13 in 10.0 mi Calm Calm - N/A   Clear
5:53 AM 37.0 °F 34.5 °F 27.0 °F 67% 30.16 in 10.0 mi SSW 3.5 mph - N/A   Clear
6:53 AM 35.1 °F 32.2 °F 27.0 °F 72% 30.18 in 10.0 mi SSW 3.5 mph - N/A   Clear
7:53 AM 37.0 °F 34.5 °F 28.0 °F 70% 30.20 in 10.0 mi South 3.5 mph - N/A   Clear
8:53 AM 50.0 °F - 30.0 °F 46% 30.17 in 10.0 mi Calm Calm - N/A   Clear
9:53 AM 64.0 °F - 33.1 °F 31% 30.14 in 10.0 mi ENE 3.5 mph - N/A   Clear
10:53 AM 70.0 °F - 33.1 °F 26% 30.12 in 10.0 mi Variable 4.6 mph - N/A   Clear
11:53 AM 77.0 °F - 35.1 °F 22% 30.08 in 10.0 mi NNE 6.9 mph - N/A   Clear
12:53 PM 77.0 °F - 33.1 °F 20% 30.07 in 10.0 mi Calm Calm - N/A   Clear
1:53 PM 79.0 °F - 21.9 °F 12% 30.04 in 10.0 mi Variable 3.5 mph 16.1 mph N/A   Clear
2:53 PM 79.0 °F - 21.0 °F 12% 30.03 in 10.0 mi Variable 5.8 mph 25.3 mph N/A   Clear
3:53 PM 78.1 °F - 24.1 °F 14% 30.04 in 10.0 mi SSW 9.2 mph 18.4 mph N/A   Clear
5:53 PM 71.1 °F - 26.1 °F 19% 30.06 in 10.0 mi Calm Calm - N/A   Clear
6:53 PM 63.0 °F - 26.1 °F 25% 30.09 in 10.0 mi Calm Calm - N/A   Clear
7:53 PM 57.9 °F - 25.0 °F 28% 30.11 in 10.0 mi Calm Calm - N/A   Clear
8:53 PM 54.0 °F - 27.0 °F 35% 30.10 in 10.0 mi South 3.5 mph - N/A   Clear
9:53 PM 51.1 °F - 27.0 °F 39% 30.07 in 10.0 mi South 3.5 mph - N/A   Clear
10:53 PM 46.9 °F - 27.0 °F 46% 30.07 in 10.0 mi Calm Calm - N/A   Clear
11:53 PM 43.0 °F 41.3 °F 27.0 °F 53% 30.06 in 10.0 mi SSW 3.5 mph - N/A   Clear